Weather History for KGLS - February, 2014

Change the Weather History Date:

Friday, February 14, 2014

  Actual Average Record
Temperature  
Mean Temperature 59 °F 57 °F  
Max Temperature 71 °F 64 °F 76 °F (1892)
Min Temperature 47 °F 51 °F 22 °F (1905)
Degree Days  
Heating Degree Days 6 8  
Month to date heating degree days 227 122  
Since 1 July heating degree days 1171 791  
Cooling Degree Days 0 0  
Month to date cooling degree days 0 0  
Year to date cooling degree days 0 5  
Growing Degree Days 8 (Base 50)    
Moisture  
Dew Point 54 °F    
Average Humidity 80    
Maximum Humidity 100    
Minimum Humidity 60    
Precipitation  
Precipitation 0.00 in 0.08 in 2.58 in (1942)
Month to date precipitation 1.31 1.24  
Year to date precipitation 2.67 5.44  
Snow  
Snow 0.00 in - 14.00 in (1895)
Month to date snowfall 0.0  
Since 1 July snowfall T  
Snow Depth 0.00 in    
Sea Level Pressure  
Sea Level Pressure 29.94 in    
Wind  
Wind Speed 12 mph (South)    
Max Wind Speed 26 mph    
Max Gust Speed 34 mph    
Visibility 8 miles    
Events Fog    
T = Trace of Precipitation, MM = Missing Value Source: NWS Daily Summary

Daily Weather History Graph

Daily Weather History Graph

Search for Another Location

Airport or City:

Trip Planner

Search our weather history database for the weather conditions in past years. The results will help you decide how hot, cold, wet, or windy it might be!

Date:

Astronomy

Feb. 14, 2014 Rise Set
Actual Time 6:59 AM CST 6:08 PM CST
Civil Twilight 6:34 AM CST 6:32 PM CST
Nautical Twilight 6:07 AM CST 7:00 PM CST
Astronomical Twilight 5:39 AM CST 7:28 PM CST
Moon 6:08 PM CST (2/14) 6:29 AM CST (2/14)
Length of Visible Light 11h 57m
Length of Day
11h 09m
Full, 100% of the Moon is Illuminated
Feb 14
Full
Feb 14
Full
Feb 22
Last Quarter
Mar 1
New
Mar 8
First Quarter

Hourly Weather History & Observations

Time (CST) Temp. Dew Point Humidity Pressure Visibility Wind Dir Wind Speed Gust Speed Precip Events Conditions
12:52 AM 48.9 °F 48.9 °F 100% 29.99 in 5.0 mi SSE 4.6 mph - N/A   Clear
12:58 AM 48.9 °F 48.9 °F 100% 29.99 in 1.8 mi SSE 4.6 mph - N/A   Clear
1:52 AM 48.0 °F 48.0 °F 100% 29.96 in 4.0 mi South 5.8 mph - N/A   Clear
2:52 AM 51.1 °F 51.1 °F 100% 29.94 in 9.0 mi South 6.9 mph - N/A   Clear
3:52 AM 52.0 °F 52.0 °F 100% 29.94 in 9.0 mi SSW 5.8 mph - N/A   Clear
4:32 AM 48.9 °F 48.9 °F 100% 29.93 in 1.8 mi South 3.5 mph - N/A   Clear
4:43 AM 48.0 °F 48.0 °F 100% 29.93 in 0.8 mi SSE 3.5 mph - N/A   Clear
4:52 AM 48.9 °F 48.9 °F 100% 29.93 in 1.8 mi South 4.6 mph - N/A   Clear
4:57 AM 48.0 °F 48.0 °F 100% 29.93 in 3.0 mi South 6.9 mph - N/A   Clear
5:40 AM 48.9 °F 48.9 °F 100% 29.94 in 2.5 mi SSE 4.6 mph - N/A   Clear
5:52 AM 48.0 °F 48.0 °F 100% 29.94 in 1.8 mi SSE 4.6 mph - N/A   Clear
5:55 AM 48.0 °F 48.0 °F 100% 29.94 in 10.0 mi South 4.6 mph - N/A Fog Shallow Fog
6:52 AM 46.9 °F 46.9 °F 100% 29.95 in 7.0 mi SE 6.9 mph - N/A Fog Shallow Fog
7:52 AM 53.1 °F 53.1 °F 100% 29.92 in 9.0 mi South 10.4 mph - N/A   Scattered Clouds
8:52 AM 60.1 °F 57.9 °F 93% 29.93 in 10.0 mi South 12.7 mph - N/A   Partly Cloudy
9:52 AM 62.1 °F 57.0 °F 84% 29.94 in 10.0 mi SSW 15.0 mph - N/A   Scattered Clouds
10:52 AM 64.0 °F 57.9 °F 80% 29.94 in 10.0 mi SSW 13.8 mph - N/A   Partly Cloudy
11:52 AM 66.0 °F 60.1 °F 81% 29.91 in 10.0 mi SW 18.4 mph - N/A   Clear
12:17 PM 66.9 °F 60.1 °F 79% 29.90 in 10.0 mi SSW 23.0 mph 26.5 mph N/A   Mostly Cloudy
12:45 PM 68.0 °F 61.0 °F 78% 29.89 in 10.0 mi SSW 19.6 mph - N/A   Scattered Clouds
12:52 PM 68.0 °F 61.0 °F 78% 29.88 in 10.0 mi SSW 19.6 mph 27.6 mph N/A   Partly Cloudy
1:52 PM 69.1 °F 61.0 °F 75% 29.86 in 10.0 mi SW 23.0 mph 33.4 mph N/A   Clear
2:52 PM 69.1 °F 61.0 °F 75% 29.85 in 10.0 mi SSW 23.0 mph 29.9 mph N/A   Clear
3:52 PM 71.1 °F 60.1 °F 68% 29.86 in 10.0 mi SW 21.9 mph 31.1 mph N/A   Clear
4:52 PM 68.0 °F 60.1 °F 76% 29.88 in 10.0 mi SSW 17.3 mph - N/A   Clear
5:52 PM 64.0 °F 59.0 °F 84% 29.89 in 10.0 mi SSW 13.8 mph - N/A   Clear
6:52 PM 63.0 °F 59.0 °F 87% 29.92 in 10.0 mi SW 11.5 mph - N/A   Clear
7:52 PM 61.0 °F 57.9 °F 90% 29.97 in 10.0 mi Variable 5.8 mph - N/A   Clear
8:52 PM 62.1 °F 51.1 °F 67% 29.99 in 10.0 mi NNW 11.5 mph - N/A   Clear
9:52 PM 61.0 °F 48.9 °F 64% 30.02 in 10.0 mi North 11.5 mph - N/A   Clear
10:52 PM 61.0 °F 46.9 °F 60% 30.05 in 10.0 mi North 8.1 mph - N/A   Clear
11:52 PM 59.0 °F 45.0 °F 60% 30.06 in 10.0 mi North 6.9 mph - N/A   Clear